Regional Weather Roundup
Issued by NWS Charleston, SC

Home | Current Version | Previous Version | Text Only | Print | Product List | Glossary On
Versions: 1 2 3 4 5 6 7 8 9 10 11 12 13 14 15 16 17 18 19 20 21 22 23 24 25 26 27 28 29 30 31 32 33 34 35 36 37 38 39 40 41 42 43 44 45 46 47 48 49 50
832
ASUS42 KCHS 022128
RWRCHS

REGIONAL WEATHER ROUNDUP
NATIONAL WEATHER SERVICE CHARLESTON SC
500 PM EDT MON MAY 02 2016

NOTE: "FAIR" INDICATES FEW OR NO CLOUDS BELOW 12,000 FEET WITH NO
SIGNIFICANT WEATHER AND/OR OBSTRUCTIONS TO VISIBILITY.

NOT ALL STATIONS ARE QUALITY CONTROLLED. USE DATA WITH CAUTION...
ESPECIALLY DEWPOINT OBSERVATIONS.

SCZ027-030-031-034>040-042>050-022200-
...SOUTHEAST SOUTH CAROLINA...

CITY           SKY/WX    TMP DP  RH WIND       PRES   REMARKS
N CHARLESTON   CLOUDY    83  64  52 SW15      29.96F
WATERFRONT PRK   N/A     79  72  79 S8        29.95F
MOUNT PLEASANT FAIR      81  72  74 S14       29.97F
JOHNS ISLAND   FAIR      77  73  88 S13       29.98S
PINOPOLIS        N/A     75  75 100 CALM      29.88S
MONCKS CORNER  FAIR      77  61  57 S10       29.95S
SUMMERVILLE    DRIZZLE   77  70  78 SW3       29.97S
BEAUFORT MCAS  TSTM      74  71  91 CALM      29.97F
BEAUFORT ARPT  FAIR      77  70  78 S9        29.97S HAZE
HILTON HEAD IS PTSUNNY   77  70  78 S9        29.99S THUNDER
WALTERBORO     CLOUDY    79  68  69 S8        29.96F
ALLENDALE      MOCLDY    79  66  65 SE14G24   29.93S THUNDER

...SOUTHERN MIDLANDS AND PEE DEE...

CITY           SKY/WX    TMP DP  RH WIND       PRES   REMARKS
GEORGETOWN     FAIR      81  66  61 S10       29.97F
KINGSTREE      FAIR      77  63  61 E7        29.93F
ORANGEBURG     MOSUNNY   85  67  54 S6        29.92F
BARNWELL       FAIR      88  70  55 S7        29.92F HX  92
AIKEN          FAIR      72  68  88 SW7       29.97F
MANNING        LGT RAIN  75  70  83 SE6       29.93F
COLUMBIA       CLOUDY    76  70  82 NW5       29.91F
SUMTER         NOT AVBL
FLORENCE       CLOUDY    84  68  58 S10       29.91F
MYRTLE BEACH   MOSUNNY   79  66  65 S17       29.97F
N MYRTLE BEACH MOSUNNY   77  70  79 S14       29.96F

$$

GAZ063-065-086>088-099>101-113>116-118-119-134>141-150-022200-
...SOUTHEAST GEORGIA...

CITY           SKY/WX    TMP DP  RH WIND       PRES   REMARKS
SAVANNAH ARPT  CLOUDY    79  73  82 S12       29.96S
HUNTER AAF     NOT AVBL
FORT STEWART   NOT AVBL
STATESBORO     TSTM      74  72  92 SE5       29.95R
SYLVANIA       CLOUDY    76  70  82 SW8G17    29.96R
CLAXTON        TSTM      76  70  81 CALM      29.94S

...CSRA...CENTRAL AND FAR SOUTHEAST GEORGIA...

CITY           SKY/WX    TMP DP  RH WIND       PRES   REMARKS
THOMSON        PTSUNNY   81  73  77 E3        29.96F
AUGUSTA-BUSH   CLOUDY    74  69  85 E6        29.90F
AUGUSTA-DANIEL CLOUDY    77  69  76 E6        29.93F
SWAINSBORO     FAIR      84  68  58 CALM      29.93F
VIDALIA        CLOUDY    81  68  65 CALM      29.92F
EASTMAN        TSTM      71  65  81 S6        29.97S
HAZLEHURST     FAIR      81  68  65 W6        29.92F
ALMA           CLOUDY    84  64  50 SE5       29.93F
WAYCROSS       CLOUDY    84  70  61 S6        29.93F
JESUP          FAIR      84  68  58 S7G16     29.93F
BAXLEY         FAIR      84  70  61 S5        29.92F
BRUNSWICK      CLOUDY    86  73  66 SE10      29.95F HX  93
SAINT SIMONS   CLOUDY    78  73  84 S12G20    29.96F

$$

SCZ027-028-034-036>038-045-046-048>050-GAZ119-141-022200-
...LAKE AND SUPPLEMENTAL COASTAL OBSERVATIONS...

STATION/POSITION TIME  TEMP    WIND        PRES    WAVE   SWELL
                       AIR SEA DIR/SP/G            HT/PER HT/PER/DIR
                 (UTC) (F)     (DEG/KT/KT) (MB)    (FT/S) (FT/S/D)
WINYAH BAY       2000   80     190/ 13     1014.0
LAKE MURRAY      2000   75     140/  2/ 10 1013.5R
ACE BASIN NERRS  2000   78        CALM     1015.0F
FORT PULASKI     2100   76 74  180/  5/ 11 1015.2R
SAPELO ISLAND    2100   77     170/  9     1015.0S

$$

ANZ835-935-AMZ111-154-330-350-352-354-370-450-454-472-022200-
...C-MAN AND BUOY OBSERVATIONS...

STATION/POSITION TIME  TEMP    WIND        PRES    WAVE   SWELL
                       AIR SEA DIR/SP/G            HT/PER HT/PER/DIR
                 (UTC) (F)     (DEG/KT/KT) (MB)    (FT/S) (FT/S/D)
BUOY 41004       2050   76 76  190/ 10/ 12 1015.2F   3/ 6   2/ 6
BUOY 41008       NOT AVBL
FOLLY BEACH CMAN 2100   75     180/ 10/ 12 1015.3F
CAPERS NEARSHORE 2108   75 75  200/ 12/ 14 1014.8F
FRIPP NEARSHORE  2108   75 75  190/ 10/ 14 1014.5R


STATION/POSITION TIME  TEMP    WIND        PRES    WAVE   SWELL
                       AIR SEA DIR/SP/G            HT/PER HT/PER/DIR
                 (UTC) (F)     (DEG/KT/KT) (MB)    (FT/S) (FT/S/D)
5E ST. MARYS GA  2021      75                N/A     3/ 9
FRYING PAN BUOY  2100   74 74  180/  8/ 10 1015.1F
BUOY 41025       2050   75 74  210/ 17/ 19 1014.8F   4/11   3/100/11
CAPE LOOKOUT NC  2100   74     200/ 13/ 16 1014.6F
BUOY 41002       2050   74 75  170/ 12/ 14 1018.6F   3/11   3/ 50/11
BUOY 41010       2020   78 79  150/ 14/ 16 1017.0F
ST AUGUSTINE FL  2100   75 74  150/ 14/ 15 1015.2F


$$




USA.gov is the U.S. government's official web portal to all federal, state and local government web resources and services.